| time (UTC) | temp C | wind direction | speed KPH | gust KPH | rain 1hr cm | rain 24hr cm | rain mn cm | humidity % | barometer mb |
| 20260502232407 | 13 | 225 | 0.0 | 0.0 | 0.00 | 0.00 | 0.00 | 67 | 1020.7 |
| 20260502231807 | 13 | 225 | 0.0 | 0.0 | 0.00 | 0.00 | 0.00 | 66 | 1020.8 |
| 20260502231211 | 13 | 225 | 0.0 | 0.0 | 0.00 | 0.00 | 0.00 | 66 | 1020.8 |
| 20260502230608 | 14 | 225 | 0.0 | 0.0 | 0.00 | 0.00 | 0.00 | 65 | 1020.9 |
| 20260502225407 | 15 | 225 | 0.0 | 0.0 | 0.00 | 0.00 | 0.00 | 63 | 1020.9 |
| 20260502224808 | 15 | 225 | 0.0 | 0.0 | 0.00 | 0.00 | 0.00 | 63 | 1020.9 |
| 20260502224207 | 15 | 225 | 0.0 | 0.0 | 0.00 | 0.00 | 0.00 | 62 | 1020.9 |
| 20260502223607 | 15 | 225 | 0.0 | 0.0 | 0.00 | 0.00 | 0.00 | 62 | 1020.9 |
| 20260502223011 | 15 | 225 | 0.0 | 0.0 | 0.00 | 0.00 | 0.00 | 61 | 1021.0 |
| 20260502222411 | 16 | 225 | 0.0 | 0.0 | 0.00 | 0.00 | 0.00 | 59 | 1021.0 |
| 20260502221807 | 16 | 225 | 0.0 | 0.0 | 0.00 | 0.00 | 0.00 | 58 | 1021.1 |
| 20260502221209 | 16 | 225 | 0.0 | 0.0 | 0.00 | 0.00 | 0.00 | 59 | 1021.1 |
| 20260502220609 | 16 | 225 | 0.0 | 0.0 | 0.00 | 0.00 | 0.00 | 58 | 1021.0 |
| 20260502215407 | 16 | 225 | 0.0 | 1.6 | 0.00 | 0.00 | 0.00 | 56 | 1020.9 |
| 20260502214807 | 16 | 225 | 0.0 | 1.6 | 0.00 | 0.00 | 0.00 | 55 | 1020.9 |
| 20260502214207 | 16 | 225 | 0.0 | 1.6 | 0.00 | 0.00 | 0.00 | 55 | 1020.9 |
| 20260502213609 | 17 | 225 | 3.2 | 4.8 | 0.00 | 0.00 | 0.00 | 54 | 1020.9 |
| 20260502213008 | 17 | 225 | 3.2 | 3.2 | 0.00 | 0.00 | 0.00 | 53 | 1021.0 |
| 20260502212407 | 17 | 225 | 3.2 | 3.2 | 0.00 | 0.00 | 0.00 | 53 | 1021.0 |
| 20260502211809 | 17 | 225 | 1.6 | 3.2 | 0.00 | 0.00 | 0.00 | 53 | 1020.9 |
| 20260502211209 | 16 | 225 | 3.2 | 3.2 | 0.00 | 0.00 | 0.00 | 54 | 1021.0 |
| 20260502210607 | 16 | 225 | 0.0 | 1.6 | 0.00 | 0.00 | 0.00 | 55 | 1021.0 |
| 20260502205407 | 16 | 225 | 0.0 | 0.0 | 0.00 | 0.00 | 0.00 | 56 | 1021.0 |
| 20260502204810 | 16 | 225 | 0.0 | 0.0 | 0.00 | 0.00 | 0.00 | 55 | 1020.9 |
| 20260502204207 | 16 | 225 | 0.0 | 0.0 | 0.00 | 0.00 | 0.00 | 56 | 1020.9 |
| 20260502203607 | 16 | 225 | 0.0 | 0.0 | 0.00 | 0.00 | 0.00 | 56 | 1020.9 |
| 20260502203009 | 16 | 225 | 0.0 | 0.0 | 0.00 | 0.00 | 0.00 | 55 | 1021.0 |
| 20260502202407 | 17 | 228 | 0.0 | 0.0 | 0.00 | 0.00 | 0.00 | 56 | 1021.0 |
| 20260502201807 | 17 | 225 | 0.0 | 0.0 | 0.00 | 0.00 | 0.00 | 54 | 1021.1 |
| 20260502201208 | 17 | 225 | 0.0 | 0.0 | 0.00 | 0.00 | 0.00 | 55 | 1021.1 |
| 20260502200608 | 17 | 225 | 0.0 | 0.0 | 0.00 | 0.00 | 0.00 | 54 | 1021.1 |
| 20260502195409 | 17 | 225 | 0.0 | 0.0 | 0.00 | 0.00 | 0.00 | 54 | 1021.1 |
| 20260502194808 | 17 | 225 | 0.0 | 0.0 | 0.00 | 0.00 | 0.00 | 54 | 1021.0 |
| 20260502194207 | 17 | 225 | 0.0 | 0.0 | 0.00 | 0.00 | 0.00 | 54 | 1021.0 |
| 20260502193607 | 17 | 225 | 0.0 | 0.0 | 0.00 | 0.00 | 0.00 | 53 | 1021.0 |
| 20260502193008 | 17 | 225 | 0.0 | 0.0 | 0.00 | 0.00 | 0.00 | 53 | 1021.1 |
| 20260502192407 | 18 | 225 | 0.0 | 0.0 | 0.00 | 0.00 | 0.00 | 52 | 1020.9 |
| 20260502191807 | 18 | 225 | 0.0 | 0.0 | 0.00 | 0.00 | 0.00 | 52 | 1021.0 |
| 20260502191211 | 18 | 225 | 0.0 | 0.0 | 0.00 | 0.00 | 0.00 | 51 | 1021.0 |
| 20260502190607 | 18 | 225 | 0.0 | 0.0 | 0.00 | 0.00 | 0.00 | 50 | 1020.9 |
| 20260502185407 | 19 | 225 | 0.0 | 0.0 | 0.00 | 0.00 | 0.00 | 48 | 1020.8 |
| 20260502184807 | 20 | 225 | 0.0 | 0.0 | 0.00 | 0.00 | 0.00 | 47 | 1020.8 |
| 20260502184207 | 20 | 225 | 1.6 | 3.2 | 0.00 | 0.00 | 0.00 | 45 | 1020.8 |
| 20260502183608 | 20 | 225 | 0.0 | 0.0 | 0.00 | 0.00 | 0.00 | 45 | 1020.7 |
| 20260502183010 | 20 | 225 | 1.6 | 3.2 | 0.00 | 0.00 | 0.00 | 44 | 1020.6 |
| 20260502182407 | 20 | 225 | 0.0 | 0.0 | 0.00 | 0.00 | 0.00 | 44 | 1020.7 |
| 20260502181807 | 21 | 225 | 3.2 | 3.2 | 0.00 | 0.00 | 0.00 | 42 | 1020.6 |
| 20260502181208 | 21 | 225 | 1.6 | 4.8 | 0.00 | 0.00 | 0.00 | 42 | 1020.7 |
| 20260502180608 | 21 | 227 | 1.6 | 3.2 | 0.00 | 0.00 | 0.00 | 41 | 1020.5 |
| 20260502164208 | 24 | 224 | 4.8 | 8.0 | 0.00 | 0.00 | 0.00 | 34 | 1020.7 |
| 20260502163608 | 24 | 223 | 4.8 | 8.0 | 0.00 | 0.00 | 0.00 | 34 | 1020.7 |
| 20260502163009 | 25 | 226 | 3.2 | 6.4 | 0.00 | 0.00 | 0.00 | 35 | 1020.8 |
| 20260502162410 | 25 | 231 | 3.2 | 4.8 | 0.00 | 0.00 | 0.00 | 34 | 1020.9 |
| 20260502161807 | 24 | 223 | 6.4 | 8.0 | 0.00 | 0.00 | 0.00 | 35 | 1020.9 |
| 20260502161207 | 25 | 234 | 6.4 | 11.3 | 0.00 | 0.00 | 0.00 | 34 | 1020.9 |
| 20260502160609 | 25 | 239 | 4.8 | 8.0 | 0.00 | 0.00 | 0.00 | 33 | 1021.0 |
| 20260502151807 | 25 | 230 | 4.8 | 8.0 | 0.00 | 0.00 | 0.00 | 32 | 1021.4 |
| 20260502151207 | 25 | 224 | 3.2 | 4.8 | 0.00 | 0.00 | 0.00 | 32 | 1021.4 |
| 20260502150607 | 25 | 227 | 3.2 | 8.0 | 0.00 | 0.00 | 0.00 | 32 | 1021.5 |
| 20260502130609 | 24 | 268 | 4.8 | 12.9 | 0.00 | 0.00 | 0.00 | 33 | 1022.9 |
| 20260502123607 | 23 | 216 | 8.0 | 9.7 | 0.00 | 0.00 | 0.00 | 33 | 1023.4 |
| 20260502122408 | 24 | 259 | 8.0 | 14.5 | 0.00 | 0.00 | 0.00 | 33 | 1023.6 |
| 20260502121807 | 23 | 272 | 4.8 | 9.7 | 0.00 | 0.00 | 0.00 | 33 | 1023.5 |
| 20260502121207 | 24 | 301 | 1.6 | 3.2 | 0.00 | 0.00 | 0.00 | 34 | 1023.6 |
| 20260502120609 | 24 | 182 | 4.8 | 6.4 | 0.00 | 0.00 | 0.00 | 35 | 1023.7 |
| 20260502115407 | 23 | 14 | 3.2 | 4.8 | 0.00 | 0.00 | 0.00 | 35 | 1023.9 |
| 20260502114810 | 23 | 239 | 3.2 | 6.4 | 0.00 | 0.00 | 0.00 | 35 | 1023.9 |
| 20260502114207 | 23 | 232 | 8.0 | 11.3 | 0.00 | 0.00 | 0.00 | 35 | 1023.9 |
| 20260502113607 | 24 | 242 | 4.8 | 8.0 | 0.00 | 0.00 | 0.00 | 34 | 1024.2 |
| 20260502112407 | 22 | 224 | 3.2 | 8.0 | 0.00 | 0.00 | 0.00 | 35 | 1024.2 |
| 20260502111810 | 22 | 228 | 9.7 | 14.5 | 0.00 | 0.00 | 0.00 | 35 | 1024.4 |
| 20260502111207 | 22 | 240 | 4.8 | 8.0 | 0.00 | 0.00 | 0.00 | 35 | 1024.4 |
| 20260502110607 | 23 | 249 | 3.2 | 11.3 | 0.00 | 0.00 | 0.00 | 34 | 1024.6 |
| 20260502105410 | 23 | 284 | 4.8 | 8.0 | 0.00 | 0.00 | 0.00 | 34 | 1024.7 |
| 20260502104808 | 22 | 232 | 4.8 | 8.0 | 0.00 | 0.00 | 0.00 | 36 | 1024.8 |
| 20260502104207 | 23 | 253 | 4.8 | 6.4 | 0.00 | 0.00 | 0.00 | 35 | 1024.8 |
| 20260502103607 | 22 | 236 | 3.2 | 6.4 | 0.00 | 0.00 | 0.00 | 35 | 1024.9 |
| 20260502102407 | 22 | 229 | 6.4 | 11.3 | 0.00 | 0.00 | 0.00 | 36 | 1025.2 |
| 20260502101806 | 22 | 239 | 4.8 | 6.4 | 0.00 | 0.00 | 0.00 | 36 | 1025.2 |
| 20260502101207 | 22 | 183 | 3.2 | 4.8 | 0.00 | 0.00 | 0.00 | 36 | 1025.2 |
| 20260502100607 | 21 | 240 | 4.8 | 8.0 | 0.00 | 0.00 | 0.00 | 36 | 1025.3 |
| 20260502091210 | 21 | 270 | 1.6 | 8.0 | 0.00 | 0.00 | 0.00 | 39 | 1025.8 |
| 20260502090607 | 20 | 222 | 3.2 | 6.4 | 0.00 | 0.00 | 0.00 | 40 | 1025.8 |
| 20260502071207 | 17 | 346 | 1.6 | 3.2 | 0.00 | 0.00 | 0.00 | 50 | 1026.5 |
| 20260502070607 | 17 | 67 | 3.2 | 4.8 | 0.00 | 0.00 | 0.00 | 51 | 1026.5 |
| 20260502065408 | 17 | 264 | 1.6 | 3.2 | 0.00 | 0.00 | 0.00 | 53 | 1026.6 |
| 20260502064807 | 16 | 296 | 0.0 | 3.2 | 0.00 | 0.00 | 0.00 | 54 | 1026.6 |
| 20260502064207 | 15 | 297 | 1.6 | 3.2 | 0.00 | 0.00 | 0.00 | 55 | 1026.5 |
| 20260502063607 | 15 | 299 | 1.6 | 3.2 | 0.00 | 0.00 | 0.00 | 57 | 1026.5 |
| 20260502063007 | 15 | 300 | 1.6 | 3.2 | 0.00 | 0.00 | 0.00 | 55 | 1026.6 |
| 20260502062408 | 15 | 298 | 0.0 | 1.6 | 0.00 | 0.00 | 0.00 | 57 | 1026.6 |
| 20260502061807 | 13 | 298 | 1.6 | 3.2 | 0.00 | 0.00 | 0.00 | 60 | 1026.6 |
| 20260502061208 | 13 | 285 | 3.2 | 3.2 | 0.00 | 0.00 | 0.00 | 60 | 1026.7 |
| 20260502060607 | 13 | 301 | 3.2 | 3.2 | 0.00 | 0.00 | 0.00 | 61 | 1026.6 |
| 20260502055407 | 12 | 292 | 4.8 | 4.8 | 0.00 | 0.00 | 0.00 | 62 | 1026.7 |
| 20260502054807 | 12 | 292 | 3.2 | 4.8 | 0.00 | 0.00 | 0.00 | 63 | 1026.7 |
| 20260502054210 | 12 | 320 | 3.2 | 4.8 | 0.00 | 0.00 | 0.00 | 62 | 1026.6 |
| 20260502053607 | 11 | 296 | 1.6 | 3.2 | 0.00 | 0.00 | 0.00 | 64 | 1026.7 |
| 20260502053006 | 11 | 300 | 1.6 | 4.8 | 0.00 | 0.00 | 0.00 | 66 | 1026.8 |
| 20260502052408 | 11 | 294 | 1.6 | 3.2 | 0.00 | 0.00 | 0.00 | 65 | 1026.7 |
| 20260502051808 | 11 | 294 | 3.2 | 4.8 | 0.00 | 0.00 | 0.00 | 66 | 1026.7 |
| 20260502051207 | 11 | 300 | 3.2 | 3.2 | 0.00 | 0.00 | 0.00 | 66 | 1026.7 |
| 20260502050607 | 11 | 306 | 3.2 | 3.2 | 0.00 | 0.00 | 0.00 | 66 | 1026.7 |
| 20260502045409 | 10 | 306 | 0.0 | 0.0 | 0.00 | 0.00 | 0.00 | 69 | 1026.6 |
| 20260502044807 | 10 | 306 | 1.6 | 3.2 | 0.00 | 0.00 | 0.00 | 69 | 1026.5 |
| 20260502044206 | 10 | 306 | 1.6 | 3.2 | 0.00 | 0.00 | 0.00 | 69 | 1026.6 |
| 20260502043609 | 9 | 306 | 1.6 | 3.2 | 0.00 | 0.00 | 0.00 | 70 | 1026.5 |
| 20260502043009 | 9 | 322 | 3.2 | 3.2 | 0.00 | 0.00 | 0.00 | 71 | 1026.5 |
| 20260502042409 | 8 | 322 | 1.6 | 3.2 | 0.00 | 0.00 | 0.00 | 72 | 1026.5 |
| 20260502041806 | 8 | 322 | 1.6 | 1.6 | 0.00 | 0.00 | 0.00 | 73 | 1026.6 |
| 20260502041208 | 8 | 322 | 3.2 | 3.2 | 0.00 | 0.00 | 0.00 | 74 | 1026.5 |
| 20260502040609 | 8 | 294 | 0.0 | 0.0 | 0.00 | 0.00 | 0.00 | 74 | 1026.6 |
| 20260502035411 | 8 | 294 | 0.0 | 0.0 | 0.00 | 0.00 | 0.00 | 74 | 1026.6 |
| 20260502034808 | 8 | 294 | 0.0 | 0.0 | 0.00 | 0.00 | 0.00 | 74 | 1026.6 |
| 20260502034207 | 8 | 294 | 0.0 | 0.0 | 0.00 | 0.00 | 0.00 | 75 | 1026.6 |
| 20260502033607 | 8 | 294 | 0.0 | 0.0 | 0.00 | 0.00 | 0.00 | 76 | 1026.6 |
| 20260502033008 | 8 | 294 | 0.0 | 0.0 | 0.00 | 0.00 | 0.00 | 75 | 1026.5 |
| 20260502032407 | 8 | 294 | 0.0 | 0.0 | 0.00 | 0.00 | 0.00 | 73 | 1026.5 |
| 20260502031807 | 8 | 294 | 0.0 | 0.0 | 0.00 | 0.00 | 0.00 | 74 | 1026.5 |
| 20260502031207 | 8 | 294 | 0.0 | 0.0 | 0.00 | 0.00 | 0.00 | 73 | 1026.5 |
| 20260502030611 | 8 | 294 | 0.0 | 0.0 | 0.00 | 0.00 | 0.00 | 73 | 1026.6 |
| 20260502025407 | 9 | 294 | 0.0 | 0.0 | 0.00 | 0.00 | 0.00 | 73 | 1026.7 |
| 20260502024807 | 9 | 294 | 0.0 | 0.0 | 0.00 | 0.00 | 0.00 | 73 | 1026.7 |
| 20260502024207 | 9 | 294 | 0.0 | 0.0 | 0.00 | 0.00 | 0.00 | 72 | 1026.7 |
| 20260502023607 | 10 | 294 | 0.0 | 0.0 | 0.00 | 0.00 | 0.00 | 71 | 1026.8 |
| 20260502023009 | 10 | 294 | 0.0 | 0.0 | 0.00 | 0.00 | 0.00 | 71 | 1026.7 |
| 20260502022407 | 10 | 294 | 0.0 | 0.0 | 0.00 | 0.00 | 0.00 | 69 | 1026.7 |
| 20260502021808 | 10 | 294 | 0.0 | 1.6 | 0.00 | 0.00 | 0.00 | 66 | 1026.8 |
| 20260502021207 | 10 | 294 | 0.0 | 1.6 | 0.00 | 0.00 | 0.00 | 67 | 1026.7 |
| 20260502020607 | 10 | 294 | 0.0 | 0.0 | 0.00 | 0.00 | 0.00 | 68 | 1026.7 |
| 20260502015408 | 10 | 294 | 0.0 | 0.0 | 0.00 | 0.00 | 0.00 | 65 | 1026.7 |
| 20260502014807 | 10 | 294 | 1.6 | 3.2 | 0.00 | 0.00 | 0.00 | 66 | 1026.7 |
| 20260502014209 | 10 | 267 | 0.0 | 0.0 | 0.00 | 0.00 | 0.00 | 67 | 1026.6 |
| 20260502013609 | 10 | 267 | 0.0 | 0.0 | 0.00 | 0.00 | 0.00 | 68 | 1026.7 |
| 20260502013009 | 10 | 267 | 0.0 | 0.0 | 0.00 | 0.00 | 0.00 | 68 | 1026.6 |
| 20260502012410 | 10 | 267 | 0.0 | 0.0 | 0.00 | 0.00 | 0.00 | 68 | 1026.6 |
| 20260502011811 | 10 | 267 | 0.0 | 0.0 | 0.00 | 0.00 | 0.00 | 67 | 1026.6 |
| 20260502011208 | 10 | 267 | 0.0 | 0.0 | 0.00 | 0.00 | 0.00 | 65 | 1026.6 |
| 20260502010608 | 10 | 267 | 1.6 | 1.6 | 0.00 | 0.00 | 0.00 | 66 | 1026.6 |
| 20260502005409 | 10 | 267 | 0.0 | 0.0 | 0.00 | 0.00 | 0.00 | 65 | 1026.6 |
| 20260502004810 | 10 | 267 | 0.0 | 0.0 | 0.00 | 0.00 | 0.00 | 62 | 1026.6 |
| 20260502004207 | 10 | 267 | 0.0 | 0.0 | 0.00 | 0.00 | 0.00 | 60 | 1026.6 |
| 20260502003608 | 10 | 267 | 0.0 | 0.0 | 0.00 | 0.00 | 0.00 | 66 | 1026.7 |
| 20260502003009 | 10 | 267 | 0.0 | 0.0 | 0.00 | 0.00 | 0.00 | 63 | 1026.7 |
| 20260502002409 | 10 | 267 | 0.0 | 0.0 | 0.00 | 0.00 | 0.00 | 62 | 1026.7 |
| 20260502001807 | 10 | 267 | 0.0 | 0.0 | 0.00 | 0.00 | 0.00 | 67 | 1026.8 |
| 20260502001207 | 10 | 267 | 0.0 | 0.0 | 0.00 | 0.00 | 0.00 | 63 | 1026.8 |
| 20260502000607 | 10 | 267 | 0.0 | 0.0 | 0.00 | 0.00 | 0.00 | 61 | 1026.7 |
| 20260501235409 | 11 | 267 | 0.0 | 0.0 | 0.00 | 0.00 | 0.00 | 59 | 1026.8 |
| 20260501234807 | 11 | 267 | 0.0 | 0.0 | 0.00 | 0.00 | 0.00 | 61 | 1026.8 |
| 20260501234207 | 11 | 267 | 0.0 | 0.0 | 0.00 | 0.00 | 0.00 | 64 | 1026.9 |
| 20260501233607 | 10 | 267 | 0.0 | 0.0 | 0.00 | 0.00 | 0.00 | 64 | 1026.8 |
| 20260501233011 | 10 | 267 | 0.0 | 0.0 | 0.00 | 0.00 | 0.00 | 65 | 1026.8 |